EN

Hourly Weather Amden

Today, 28 January, Thursday

Time Temperature Precipitation Wind Pressure Humidity
00:00 -1°C° 1.5 mm 1 mps 647 mmHg 98%
01:00 0°C° 0 mm 1 mps 647 mmHg 98%
02:00 0°C° 1.2 mm 1 mps 647 mmHg 98%
03:00 0°C° 1.2 mm 1 mps 647 mmHg 98%
04:00 0°C° 1.2 mm 1 mps 647 mmHg 98%
05:00 0°C° 1.6 mm 1 mps 646 mmHg 98%
06:00 -2°C° 1.6 mm 2 mps 646 mmHg 98%
07:00 -2°C° 1.6 mm 2 mps 645 mmHg 98%
08:00 -1°C° 2.3 mm 2 mps 645 mmHg 98%
09:00 -1°C° 2.3 mm 2 mps 644 mmHg 98%
10:00 -1°C° 2.3 mm 2 mps 644 mmHg 98%
11:00 -1°C° 3.1 mm 3 mps 644 mmHg 99%
12:00 0°C° 3.1 mm 3 mps 644 mmHg 99%
13:00 0°C° 3.1 mm 3 mps 643 mmHg 99%
14:00 0°C° 2.4 mm 3 mps 643 mmHg 99%
15:00 0°C° 2.4 mm 3 mps 643 mmHg 99%
16:00 0°C° 2.4 mm 3 mps 643 mmHg 99%
17:00 +1°C° 2.3 mm 2 mps 644 mmHg 99%
18:00 +1°C° 2.3 mm 2 mps 644 mmHg 98%
19:00 +1°C° 2.3 mm 2 mps 644 mmHg 98%
20:00 +1°C° 1.3 mm 2 mps 644 mmHg 98%
21:00 +1°C° 1.3 mm 2 mps 645 mmHg 98%
22:00 +1°C° 1.3 mm 2 mps 645 mmHg 98%
23:00 +1°C° 0.5 mm 2 mps 645 mmHg 98%

Tomorrow, 29 January, Friday

Time Temperature Precipitation Wind Pressure Humidity
00:00 +1°C° 0.5 mm 2 mps 644 mmHg 97%
01:00 +1°C° 0.5 mm 2 mps 644 mmHg 97%
02:00 +1°C° 0.3 mm 2 mps 644 mmHg 96%
03:00 +1°C° 0.3 mm 2 mps 643 mmHg 95%
04:00 +1°C° 0.3 mm 2 mps 642 mmHg 94%
05:00 +1°C° 1.3 mm 2 mps 641 mmHg 95%
06:00 +1°C° 1.3 mm 2 mps 641 mmHg 96%
07:00 +1°C° 1.3 mm 2 mps 640 mmHg 97%
08:00 +1°C° 4.2 mm 2 mps 640 mmHg 97%
09:00 +1°C° 4.2 mm 2 mps 641 mmHg 98%
10:00 +1°C° 4.2 mm 2 mps 641 mmHg 98%
11:00 0°C° 1.8 mm 3 mps 641 mmHg 97%
12:00 0°C° 1.8 mm 3 mps 641 mmHg 96%
13:00 +1°C° 1.8 mm 3 mps 642 mmHg 95%
14:00 0°C° 0.4 mm 3 mps 641 mmHg 95%
15:00 0°C° 0.4 mm 3 mps 641 mmHg 95%
16:00 +1°C° 0.4 mm 2 mps 641 mmHg 95%
17:00 -1°C° 2.1 mm 3 mps 641 mmHg 96%
18:00 -1°C° 2.1 mm 3 mps 641 mmHg 96%
19:00 -1°C° 2.1 mm 3 mps 641 mmHg 97%
20:00 -2°C° 1.6 mm 3 mps 642 mmHg 97%
21:00 -3°C° 1.6 mm 4 mps 642 mmHg 96%
22:00 -3°C° 1.6 mm 4 mps 642 mmHg 96%
23:00 -2°C° 0.6 mm 3 mps 643 mmHg 96%

Day after tomorrow, 30 January, Saturday

Time Temperature Precipitation Wind Pressure Humidity
00:00 -2°C° 0.6 mm 3 mps 643 mmHg 96%
01:00 -2°C° 0.6 mm 3 mps 643 mmHg 96%
02:00 -3°C° 0 mm 2 mps 642 mmHg 92%
03:00 -4°C° 0 mm 2 mps 642 mmHg 89%
04:00 -5°C° 0 mm 2 mps 641 mmHg 85%
05:00 -4°C° 0 mm 2 mps 640 mmHg 83%
06:00 -4°C° 0 mm 2 mps 640 mmHg 81%
07:00 -4°C° 0 mm 2 mps 639 mmHg 78%
08:00 -3°C° 0 mm 2 mps 639 mmHg 79%
09:00 -2°C° 0 mm 2 mps 639 mmHg 80%
10:00 -1°C° 0 mm 2 mps 639 mmHg 80%
11:00 -1°C° 0.2 mm 2 mps 638 mmHg 85%
12:00 +1°C° 0.2 mm 2 mps 637 mmHg 90%
13:00 +2°C° 0.2 mm 1 mps 636 mmHg 96%
14:00 +2°C° 0.6 mm 1 mps 636 mmHg 96%
15:00 +2°C° 0.6 mm 1 mps 635 mmHg 96%
16:00 +2°C° 0.6 mm 1 mps 635 mmHg 96%
17:00 +2°C° 1.7 mm 1 mps 635 mmHg 97%
18:00 +1°C° 1.7 mm 1 mps 635 mmHg 97%
19:00 +1°C° 1.7 mm 1 mps 635 mmHg 98%
20:00 +1°C° 2.2 mm 1 mps 635 mmHg 98%
21:00 -1°C° 2.2 mm 2 mps 635 mmHg 98%
22:00 -1°C° 2.2 mm 2 mps 635 mmHg 98%
23:00 0°C° 1.1 mm 1 mps 635 mmHg 98%

31 January, Sunday

Time Temperature Precipitation Wind Pressure Humidity
00:00 0°C° 1.1 mm 1 mps 635 mmHg 98%
01:00 0°C° 1.1 mm 1 mps 635 mmHg 98%
02:00 0°C° 1.1 mm 1 mps 635 mmHg 98%
03:00 0°C° 1.1 mm 1 mps 635 mmHg 98%
04:00 0°C° 1.1 mm 1 mps 635 mmHg 98%
05:00 0°C° 0.6 mm 1 mps 635 mmHg 98%
06:00 0°C° 0.6 mm 1 mps 635 mmHg 98%
07:00 0°C° 0.6 mm 1 mps 635 mmHg 98%
08:00 0°C° 0.1 mm 1 mps 636 mmHg 97%
09:00 0°C° 0.1 mm 1 mps 636 mmHg 96%
10:00 +1°C° 0.1 mm 1 mps 636 mmHg 95%
11:00 +1°C° 0 mm 1 mps 636 mmHg 94%
12:00 +1°C° 0 mm 0 mps 636 mmHg 92%
13:00 +1°C° 0 mm 0 mps 636 mmHg 90%
14:00 +1°C° 0 mm 0 mps 636 mmHg 91%
15:00 +2°C° 0 mm 1 mps 636 mmHg 91%
16:00 +2°C° 0 mm 1 mps 635 mmHg 92%
17:00 +1°C° 0 mm 1 mps 635 mmHg 90%
18:00 0°C° 0 mm 1 mps 635 mmHg 89%
19:00 0°C° 0 mm 1 mps 635 mmHg 87%
20:00 -3°C° 0 mm 2 mps 635 mmHg 86%
21:00 -3°C° 0 mm 2 mps 634 mmHg 84%
22:00 -3°C° 0 mm 2 mps 634 mmHg 83%
23:00 -3°C° 0 mm 2 mps 634 mmHg 84%

1 February, Monday

Time Temperature Precipitation Wind Pressure Humidity
00:00 -3°C° 0 mm 2 mps 633 mmHg 84%
01:00 -3°C° 0 mm 2 mps 633 mmHg 85%
02:00 -3°C° 0.1 mm 2 mps 633 mmHg 86%
03:00 -3°C° 0.1 mm 2 mps 633 mmHg 88%
04:00 -3°C° 0.1 mm 2 mps 633 mmHg 89%
05:00 -3°C° 0.7 mm 2 mps 633 mmHg 91%
06:00 -3°C° 0.7 mm 2 mps 633 mmHg 93%
07:00 -3°C° 0.7 mm 2 mps 633 mmHg 95%
08:00 -2°C° 0.8 mm 2 mps 634 mmHg 96%
09:00 -2°C° 0.8 mm 2 mps 634 mmHg 96%
10:00 -1°C° 0.8 mm 2 mps 635 mmHg 96%
11:00 -1°C° 1.5 mm 2 mps 635 mmHg 97%
12:00 -1°C° 1.5 mm 2 mps 636 mmHg 98%
13:00 -1°C° 1.5 mm 2 mps 636 mmHg 98%
14:00 -1°C° 1.5 mm 2 mps 637 mmHg 98%
15:00 -1°C° 1.5 mm 2 mps 637 mmHg 98%
16:00 -1°C° 1.5 mm 2 mps 638 mmHg 98%
17:00 -1°C° 1.4 mm 2 mps 639 mmHg 98%
18:00 -1°C° 1.4 mm 2 mps 639 mmHg 98%
19:00 +1°C° 1.4 mm 1 mps 640 mmHg 98%
20:00 +1°C° 1.3 mm 1 mps 641 mmHg 98%
21:00 0°C° 1.3 mm 1 mps 642 mmHg 98%
22:00 0°C° 1.3 mm 1 mps 642 mmHg 98%
23:00 0°C° 1.4 mm 1 mps 643 mmHg 98%

2 February, Tuesday

Time Temperature Precipitation Wind Pressure Humidity
00:00 0°C° 1.4 mm 1 mps 644 mmHg 98%
01:00 0°C° 1.4 mm 1 mps 644 mmHg 98%
02:00 0°C° 1.2 mm 1 mps 645 mmHg 98%
03:00 0°C° 1.2 mm 1 mps 645 mmHg 98%
04:00 0°C° 1.2 mm 1 mps 646 mmHg 98%
05:00 0°C° 0.2 mm 1 mps 646 mmHg 97%
06:00 0°C° 0.2 mm 1 mps 646 mmHg 96%
07:00 0°C° 0.2 mm 1 mps 647 mmHg 96%
08:00 0°C° 0 mm 1 mps 647 mmHg 93%
09:00 -1°C° 0 mm 2 mps 647 mmHg 91%
10:00 -1°C° 0 mm 2 mps 647 mmHg 89%
11:00 +1°C° 0 mm 2 mps 647 mmHg 90%
12:00 +3°C° 0 mm 1 mps 647 mmHg 91%
13:00 +3°C° 0 mm 1 mps 647 mmHg 92%
14:00 +3°C° 0.3 mm 1 mps 646 mmHg 93%
15:00 +2°C° 0.3 mm 2 mps 646 mmHg 95%
16:00 +2°C° 0.3 mm 2 mps 646 mmHg 96%
17:00 +2°C° 0.2 mm 2 mps 646 mmHg 94%
18:00 +1°C° 0.2 mm 2 mps 646 mmHg 91%
19:00 +1°C° 0.2 mm 2 mps 647 mmHg 89%
20:00 +1°C° 0.1 mm 2 mps 647 mmHg 87%
21:00 +1°C° 0.1 mm 2 mps 647 mmHg 86%
22:00 0°C° 0.1 mm 3 mps 646 mmHg 84%
23:00 +1°C° 0.1 mm 2 mps 646 mmHg 84%
Show more